Weather History for KSJS - April, 2014

Change the Weather History Date:

Thursday, April 3, 2014

  Actual Average Record
Temperature  
Mean Temperature 66 °F -  
Max Temperature 80 °F - - ()
Min Temperature 52 °F - - ()
Cooling Degree Days 1    
Growing Degree Days 16 (Base 50)    
Moisture  
Dew Point 51 °F    
Average Humidity 69    
Maximum Humidity 98    
Minimum Humidity 35    
Precipitation  
Precipitation 0.00 in - - ()
Sea Level Pressure  
Sea Level Pressure 29.94 in    
Wind  
Wind Speed 4 mph (SSW)    
Max Wind Speed 15 mph    
Max Gust Speed 28 mph    
Visibility 10 miles    
Events      
T = Trace of Precipitation, MM = Missing Value Source: NWS Daily Summary

Daily Weather History Graph

Daily Weather History Graph

Search for Another Location

Airport or City:

Trip Planner

Search our weather history database for the weather conditions in past years. The results will help you decide how hot, cold, wet, or windy it might be!

Date:

Astronomy

Apr. 03, 2014 Rise Set
Actual Time 7:12 AM EDT 7:55 PM EDT
Civil Twilight 6:46 AM EDT 8:21 PM EDT
Nautical Twilight 6:15 AM EDT 8:53 PM EDT
Astronomical Twilight 5:42 AM EDT 9:25 PM EDT
Moon 9:44 AM EDT (4/3) No Moon Set
Length of Visible Light 13h 35m
Length of Day
12h 42m
Waxing Crescent, 17% of the Moon is Illuminated
Apr 3
Waxing Crescent
Apr 7
First Quarter
Apr 15
Full
Apr 22
Last Quarter
Apr 29
New

Hourly Weather History & Observations

Time (EDT) Temp. Heat Index Dew Point Humidity Pressure Visibility Wind Dir Wind Speed Gust Speed Precip Events Conditions
12:15 AM 56.7 °F - 49.1 °F 76% 30.03 in 10.0 mi SE 3.5 mph - N/A   Clear
12:35 AM 58.6 °F - 47.1 °F 66% 30.03 in 10.0 mi Calm Calm - N/A   Clear
12:55 AM 56.3 °F - 47.5 °F 72% 30.04 in 10.0 mi Calm Calm - N/A   Clear
1:15 AM 57.0 °F - 48.2 °F 72% 30.03 in 10.0 mi Calm Calm - N/A   Clear
1:35 AM 56.8 °F - 47.8 °F 72% 30.02 in 10.0 mi Calm Calm - N/A   Clear
1:55 AM 54.1 °F - 47.7 °F 79% 30.01 in 10.0 mi North 3.5 mph - N/A   Clear
2:15 AM 56.1 °F - 48.6 °F 76% 29.99 in 10.0 mi Calm Calm - N/A   Clear
2:35 AM 56.8 °F - 47.3 °F 70% 29.99 in 10.0 mi Calm Calm - N/A   Clear
2:55 AM 53.4 °F - 48.2 °F 82% 29.99 in 10.0 mi ENE 4.6 mph - N/A   Clear
3:15 AM 53.1 °F - 48.2 °F 84% 29.99 in 10.0 mi Calm Calm - N/A   Clear
3:35 AM 54.3 °F - 48.7 °F 81% 29.99 in 10.0 mi SE 3.5 mph - N/A   Clear
3:55 AM 53.1 °F - 48.4 °F 84% 29.99 in 10.0 mi Calm Calm - N/A   Clear
4:15 AM 53.8 °F - 48.4 °F 82% 29.99 in 10.0 mi Calm Calm - N/A   Clear
4:35 AM 52.3 °F - 48.2 °F 86% 29.99 in 10.0 mi North 4.6 mph - N/A   Clear
4:55 AM 53.2 °F - 48.0 °F 82% 29.99 in 10.0 mi Calm Calm - N/A   Clear
5:15 AM 53.8 °F - 47.8 °F 80% 29.99 in 10.0 mi Calm Calm - N/A   Clear
5:30 AM 53.1 °F - 47.8 °F 82% 29.99 in 10.0 mi Calm Calm - N/A   Clear
5:55 AM 54.5 °F - 47.3 °F 77% 30.00 in 10.0 mi Calm Calm - N/A   Clear
6:15 AM 53.6 °F - 48.0 °F 81% 30.00 in 10.0 mi SSW 4.6 mph - N/A   Clear
6:35 AM 55.8 °F - 46.9 °F 72% 30.00 in 10.0 mi SSW 5.8 mph - N/A   Clear
6:55 AM 55.4 °F - 47.5 °F 75% 29.99 in 10.0 mi SSW 4.6 mph - N/A   Clear
7:15 AM 57.2 °F - 47.3 °F 69% 30.00 in 10.0 mi SW 3.5 mph - N/A   Clear
7:35 AM 55.9 °F - 47.3 °F 73% 29.99 in 10.0 mi SSW 3.5 mph - N/A   Clear
8:15 AM 57.7 °F - 49.3 °F 73% 29.99 in 10.0 mi Calm Calm - N/A   Clear
8:35 AM 58.3 °F - 49.8 °F 73% 30.00 in 10.0 mi SW 3.5 mph - N/A   Clear
8:55 AM 58.6 °F - 50.2 °F 73% 29.99 in 10.0 mi SSW 4.6 mph - N/A   Clear
9:15 AM 60.3 °F - 52.2 °F 75% 30.00 in 10.0 mi South 4.6 mph - N/A   Scattered Clouds
9:35 AM 60.8 °F - 52.9 °F 75% 30.00 in 10.0 mi South 3.5 mph - N/A   Mostly Cloudy
9:55 AM 58.5 °F - 52.0 °F 79% 29.99 in 10.0 mi Calm Calm - N/A   Overcast
10:15 AM 58.5 °F - 52.5 °F 81% 29.97 in 10.0 mi East 4.6 mph - N/A   Mostly Cloudy
10:35 AM 61.2 °F - 53.6 °F 76% 29.97 in 10.0 mi SSE 3.5 mph - N/A   Mostly Cloudy
10:55 AM 63.1 °F - 52.2 °F 67% 29.98 in 10.0 mi Calm Calm - N/A   Overcast
11:10 AM 62.1 °F - 52.9 °F 72% 29.97 in 10.0 mi South 3.5 mph - N/A   Overcast
11:35 AM 65.8 °F - 52.5 °F 62% 29.96 in 10.0 mi South 4.6 mph - N/A   Mostly Cloudy
11:55 AM 67.6 °F - 53.4 °F 60% 29.94 in 10.0 mi South 8.1 mph - N/A   Scattered Clouds
12:15 PM 69.6 °F - 53.8 °F 57% 29.92 in 10.0 mi South 5.8 mph - N/A   Clear
12:35 PM 71.2 °F - 54.0 °F 54% 29.91 in 10.0 mi South 8.1 mph - N/A   Scattered Clouds
12:55 PM 72.5 °F - 54.1 °F 52% 29.91 in 10.0 mi South 8.1 mph - N/A   Mostly Cloudy
1:15 PM 73.8 °F - 54.1 °F 50% 29.90 in 10.0 mi SSW 8.1 mph - N/A   Scattered Clouds
1:35 PM 75.4 °F - 55.0 °F 49% 29.88 in 10.0 mi SW 11.5 mph 17.3 mph N/A   Clear
2:15 PM 76.8 °F - 55.0 °F 47% 29.85 in 10.0 mi SW 15.0 mph 20.7 mph N/A   Clear
2:35 PM 77.9 °F - 55.4 °F 46% 29.83 in 10.0 mi SSW 15.0 mph 19.6 mph N/A   Clear
2:55 PM 80.1 °F 80.1 °F 54.1 °F 41% 29.82 in 10.0 mi WSW 15.0 mph 24.2 mph N/A   Clear
3:15 PM 79.3 °F - 51.8 °F 38% 29.82 in 10.0 mi WSW 13.8 mph 20.7 mph N/A   Clear
3:35 PM 80.8 °F - 51.1 °F 35% 29.80 in 10.0 mi SW 11.5 mph 23.0 mph N/A   Clear
3:55 PM 80.2 °F - 51.6 °F 37% 29.79 in 10.0 mi SW 12.7 mph 21.9 mph N/A   Clear
4:15 PM 79.2 °F - 51.8 °F 38% 29.80 in 10.0 mi SW 10.4 mph 20.7 mph N/A   Scattered Clouds
4:35 PM 78.4 °F - 52.3 °F 40% 29.79 in 10.0 mi WSW 11.5 mph 17.3 mph N/A   Scattered Clouds
4:55 PM 77.9 °F - 53.1 °F 42% 29.79 in 10.0 mi SW 13.8 mph 27.6 mph N/A   Scattered Clouds
5:15 PM 77.0 °F - 53.1 °F 43% 29.79 in 10.0 mi SW 9.2 mph - N/A   Mostly Cloudy
9:20 PM 60.3 °F - 59.5 °F 97% 29.89 in 10.0 mi South 9.2 mph - N/A   Overcast
9:35 PM 60.4 °F - 59.7 °F 97% 29.89 in 7.0 mi SSW 13.8 mph 18.4 mph N/A   Overcast
9:55 PM 60.8 °F - 59.9 °F 97% 29.90 in 10.0 mi SSW 12.7 mph 17.3 mph N/A   Overcast
10:15 PM 61.3 °F - 59.5 °F 94% 29.90 in 10.0 mi SSW 9.2 mph - N/A   Overcast
10:35 PM 61.3 °F - 59.9 °F 95% 29.88 in 7.0 mi SE 5.8 mph - N/A   Overcast
11:55 PM 60.4 °F - 59.9 °F 98% 29.85 in 10.0 mi SSE 15.0 mph - N/A   Overcast